Retour au catalogue

STARLINK-4788

ActifCommunicationsVLEO
NORAD 53863·PAYLOAD·🇺🇸 United States

Lancé Sep 19, 2022 depuis Cape Canaveral Space Force Station

Loading…

Prochains Passages (prochaines 24 heures)

TLE

FraisSource: CelesTrak SupGP

Époque: Sep 14, 2026, 22:18 UTC

1 53863C 22114AX  26257.92965278 -.00024741  00000+0 -79522-3 0  2579
2 53863  53.1562 144.4984 0001440  92.0762 344.5704 15.31729995    17

Suivez STARLINK-4788 en temps réel avec AllMySat

Download on the App Store